Lid_Strength_Index
-1 -1 1 2 8 9 11 10 7 8 7 7 7 7 6 6 7 8 1 0 -0 1 -1 -1 -1 -2 -2 -2 -2 -2 -2 -2 -2 -2 -2 -2 -2 -2 -2 -1 -1 -1 -1 -1 -1 -1 -1 -1 -1
-1 1 3 4 10 13 11 8 9 7 5 5 7 8 8 8 5 4 2 0 -0 -0 -1 -1 -1 -2 -2 -2 -2 -2 -2 -2 -2 -2 -2 -2 -2 -2 -2 -2 -2 -2 -1 -1 -1 -1 -1 -1 -1
0 2 4 7 10 12 11 8 7 6 5 5 7 6 6 6 4 3 1 -0 -0 -0 -1 -1 -1 -1 -2 -2 -2 -2 -2 -2 -2 -2 -2 -2 -2 -2 -2 -2 -2 -2 -2 -2 -2 -2 -1 -1 -1
2 2 4 9 11 9 9 7 6 6 5 6 6 6 5 4 3 1 0 -0 0 -0 -1 -1 -1 -1 -1 -2 -2 -2 -2 -2 -2 -2 -2 -2 -2 -2 -2 -1 -2 -2 -2 -2 -2 -2 -2 -2 -1
1 4 8 11 10 8 7 6 5 6 5 5 6 6 6 4 2 1 0 -0 0 -0 -1 -1 -1 -1 -1 -1 -1 -1 -1 -1 -2 -2 -2 -2 -2 -1 -1 -1 -2 -2 -2 -2 -2 -2 -2 -2 -2
5 5 10 11 10 7 6 5 5 5 5 6 6 6 5 3 2 1 0 0 -0 -0 -1 -1 -1 -1 -1 -1 -1 -1 -1 -1 -1 -1 -2 -2 -1 -1 -1 -2 -2 -2 -2 -2 -2 -2 -2 -2 -2
6 7 9 10 9 8 7 4 6 5 5 5 5 6 4 4 2 0 0 -0 -0 -0 -0 -1 -1 -1 -1 -1 -1 -1 -1 -1 -1 -1 -1 -1 -2 -2 -2 -2 -2 -2 -2 -2 -2 -2 -2 -2 -2
4 6 9 9 9 8 6 5 5 5 5 4 5 6 5 3 2 0 0 0 0 -0 -0 -0 -1 -1 -1 -1 -1 -1 -1 -1 -1 -1 -1 -1 -1 -1 -1 -2 -1 -1 -2 -2 -2 -2 -2 -2 -2
4 8 10 9 9 7 5 6 5 4 4 4 4 4 3 3 2 1 1 1 1 1 0 -0 -0 -1 -1 -1 -1 -1 -1 -1 -1 -1 -2 -1 -1 -2 -2 -2 -1 -1 -1 -1 -2 -2 -2 -2 -2
6 9 9 7 6 6 6 6 5 5 5 5 4 3 3 3 3 2 2 2 2 1 1 -0 -0 -0 -1 -1 -1 -1 -1 -1 -1 -1 -2 -1 -2 -2 -1 -1 -1 -1 -1 -1 -2 -1 -1 -1 -1
6 9 6 6 6 5 5 5 4 5 6 5 5 4 3 3 3 2 2 2 2 1 1 0 -0 -0 -0 -0 -1 -1 -1 -1 -1 -1 -2 -2 -1 -1 -1 -1 -1 -1 -1 -1 -1 -1 -1 -1 -1
8 6 6 5 5 5 6 5 6 5 5 3 3 3 3 3 3 3 2 2 2 1 1 0 -0 -0 -0 -1 -0 -1 -0 -1 -1 -1 -2 -1 -0 -1 -1 -1 -1 -1 -1 -1 -1 -1 -1 -1 -1
7 6 5 5 5 5 5 6 6 5 4 3 3 3 3 3 3 2 2 1 1 1 1 0 -0 -0 -0 -0 -1 -1 -1 -0 -1 -1 -1 -1 -0 -0 -1 -1 -1 -1 -1 -1 -1 -1 -1 -1 -1
6 6 6 5 5 5 6 6 6 5 4 4 3 3 3 3 3 2 2 2 2 1 1 0 0 -0 -0 -0 -1 -0 -1 -1 -1 -1 -1 -2 -1 -1 -0 -0 -0 -0 -1 -1 -1 -0 -0 -0 -1
7 9 8 8 7 7 7 9 8 6 5 5 4 4 4 3 2 3 2 2 1 1 1 0 0 -0 -0 -0 -0 -1 -1 -1 -0 -1 -1 -1 -1 -1 -1 -0 -0 -0 -1 -1 -1 -1 -1 -0 -0
10 10 11 9 8 8 8 11 8 6 5 5 5 5 4 3 3 2 2 1 1 1 1 0 0 0 -0 -0 -0 -0 -1 -0 -0 -1 -1 -1 -1 -1 -1 -0 -0 -1 -1 -1 -0 -0 0 0 0
10 12 12 11 9 9 8 10 7 6 6 6 6 5 5 4 3 2 2 2 2 1 1 1 0 0 0 -0 -0 -1 -1 -0 -0 -1 -1 -1 -1 -1 -1 -0 -0 -1 -0 -0 -0 0 0 1 1
13 13 12 12 9 9 10 10 8 7 6 6 6 5 5 4 3 2 2 2 1 1 1 1 0 0 -0 -0 -0 -0 -0 -0 -1 -0 -1 -1 -1 -1 -1 -1 -1 -1 -0 0 0 0 0 0 0
10 11 11 10 9 10 9 9 8 6 6 7 6 6 5 4 3 3 3 2 1 1 1 1 1 0 0 1 1 1 1 1 0 -0 -1 -1 -1 -1 -1 -0 -0 -1 0 0 -0 0 1 1 0
12 12 12 10 9 10 9 10 7 7 7 7 6 6 5 4 3 4 4 3 2 2 1 1 1 1 0 1 0 0 0 0 -0 -1 -1 -1 -1 -1 -1 -0 -0 -0 0 0 0 0 1 1 0
12 13 12 12 10 9 10 10 9 7 7 7 6 5 4 4 4 4 4 3 2 2 2 1 1 1 0 0 0 -0 -0 0 1 0 -0 -1 -1 -1 -1 -0 -0 -0 0 1 0 0 1 2 1
13 11 11 12 12 13 10 14 10 9 9 7 5 5 4 5 4 4 4 3 3 2 1 1 1 1 0 -0 1 1 2 2 1 0 -0 -0 -1 -0 -1 -0 -0 -0 -0 0 0 -0 0 1 3
12 10 11 11 12 12 11 13 11 8 10 9 7 5 4 4 4 4 4 3 2 2 2 1 1 1 0 0 0 1 1 1 0 0 1 0 -1 -0 -0 -1 -0 -0 -0 -0 -0 0 0 0 1
9 10 10 10 11 15 12 13 12 10 9 8 6 5 5 5 4 4 3 2 2 2 1 1 1 1 0 0 0 1 1 1 1 1 1 1 0 -0 -0 -0 -0 -1 -0 -0 -0 -0 -0 0 0
10 12 15 16 16 16 11 13 12 8 7 7 6 5 5 5 4 4 4 3 3 2 2 2 1 2 1 1 1 1 1 1 1 1 1 2 1 1 0 -0 -0 -0 -0 -0 -0 -0 0 0 0
12 12 14 18 16 15 12 14 12 7 6 5 5 4 5 5 4 4 4 3 3 2 2 2 2 2 1 1 1 1 1 0 0 0 0 1 1 0 -0 -0 -0 -0 -0 -1 -0 0 0 -0 0
12 13 10 13 12 14 13 11 8 7 7 6 5 5 5 5 5 4 3 3 3 2 2 2 2 2 1 1 1 1 0 0 1 0 -0 0 -0 -0 -0 -0 -0 -0 -0 -0 -0 0 0 0 1
11 9 15 13 17 18 14 13 12 9 8 6 6 6 6 5 5 4 3 3 3 2 2 1 1 1 1 1 1 1 0 0 0 -0 0 0 -0 -0 0 -0 -0 -0 -0 -0 -0 0 -0 0 0
13 13 12 12 13 16 17 14 8 8 7 7 6 6 6 5 5 4 3 3 2 2 2 2 2 1 1 1 1 1 1 0 0 0 0 0 -0 0 0 0 0 0 0 -0 0 0 0 1 1
9 11 11 14 15 13 13 13 7 7 6 6 6 6 5 5 4 4 3 3 3 3 2 2 2 2 1 1 1 1 1 1 1 1 0 0 0 0 0 0 0 0 0 0 0 1 1 1 1